Weather History for San Diego Brown, CA

Change the Weather History Date:

Monday, September 16, 2013

  Actual Average Record
Temperature  
Mean Temperature 69 °F -  
Max Temperature 79 °F 77 °F 89 °F (1958)
Min Temperature 60 °F 58 °F 52 °F (2006)
Cooling Degree Days 4    
Growing Degree Days 19 (Base 50)    
Moisture  
Dew Point 63 °F    
Average Humidity 90    
Maximum Humidity 100    
Minimum Humidity 62    
Precipitation  
Precipitation 0.00 in - - ()
Sea Level Pressure  
Sea Level Pressure 29.79 in    
Wind  
Wind Speed 3 mph (WNW)    
Max Wind Speed 13 mph    
Max Gust Speed -    
Visibility 5 miles    
Events Fog    
Averages and records for this station are not official NWS values.
T = Trace of Precipitation, MM = Missing Value Source: NWS Daily Summary

Daily Weather History Graph

Daily Weather History Graph

Search for Another Location

Airport:

Trip Planner

Search our weather history database for the weather conditions in past years. The results will help you decide how hot, cold, wet, or windy it might be!

Date:

Astronomy

Sep. 16, 2013 Rise Set
Actual Time 6:32 AM PDT 6:52 PM PDT
Civil Twilight 6:07 AM PDT 7:16 PM PDT
Nautical Twilight 5:39 AM PDT 7:45 PM PDT
Astronomical Twilight 5:09 AM PDT 8:14 PM PDT
Moon 4:58 PM PDT 3:31 AM PDT
Length of Visible Light 13h 08m
Length of Day
12h 19m
Waxing Gibbous, 91% of the Moon is Illuminated
Sep 16
Waxing Gibbous
Sep 19
Full
Sep 26
Last Quarter
Oct 4
New
Oct 11
First Quarter

Hourly Weather History & Observations

Time (PDT) Temp. Dew Point Humidity Pressure Visibility Wind Dir Wind Speed Gust Speed Precip Events Conditions
12:02 AM 64.4 °F 64.4 °F 100% 29.79 in 4.0 mi ESE 3.5 mph - N/A   Clear
12:53 AM 64.0 °F 63.0 °F 96% 29.78 in 4.0 mi ESE 4.6 mph - N/A   Clear
1:53 AM 64.9 °F 64.0 °F 97% 29.78 in 5.0 mi Calm Calm - N/A   Clear
2:53 AM 64.9 °F 63.0 °F 93% 29.77 in 5.0 mi Calm Calm - N/A   Clear
3:53 AM 63.0 °F 63.0 °F 100% 29.77 in 4.0 mi Calm Calm - N/A   Clear
4:12 AM 62.6 °F 62.6 °F 100% 29.79 in 1.2 mi Calm Calm - N/A   Partly Cloudy
4:17 AM 62.6 °F 62.6 °F 100% 29.79 in 0.8 mi Calm Calm - N/A   Mist
4:29 AM 62.6 °F 62.6 °F 100% 29.79 in 0.2 mi Calm Calm - N/A Fog Fog
4:34 AM 64.4 °F 62.6 °F 94% 29.79 in 2.0 mi Calm Calm - N/A   Partly Cloudy
4:43 AM 60.8 °F 60.8 °F 100% 29.78 in 1.0 mi Calm Calm - N/A   Mist
4:53 AM 63.0 °F 62.1 °F 97% 29.77 in 2.5 mi Calm Calm - N/A   Partly Cloudy
5:01 AM 62.6 °F 62.6 °F 100% 29.78 in 1.5 mi Calm Calm - N/A   Partly Cloudy
5:04 AM 60.8 °F 60.8 °F 100% 29.78 in 0.8 mi Calm Calm - N/A   Mist
5:12 AM 62.6 °F 62.6 °F 100% 29.79 in 1.5 mi Calm Calm - N/A   Scattered Clouds
5:16 AM 62.6 °F 62.6 °F 100% 29.79 in 2.0 mi Calm Calm - N/A   Mostly Cloudy
5:21 AM 62.6 °F 62.6 °F 100% 29.79 in 0.8 mi Calm Calm - N/A   Mist
5:53 AM 62.1 °F 62.1 °F 100% 29.78 in 1.0 mi ENE 3.5 mph - N/A   Mist
5:56 AM 62.6 °F 62.6 °F 100% 29.79 in 3.0 mi ENE 3.5 mph - N/A   Scattered Clouds
6:53 AM 63.0 °F 62.1 °F 97% 29.78 in 5.0 mi North - - N/A   Clear
7:53 AM 66.9 °F 64.0 °F 90% 29.80 in 6.0 mi Calm Calm - N/A   Clear
8:53 AM 70.0 °F 64.0 °F 81% 29.80 in 6.0 mi Variable 3.5 mph - N/A   Haze
9:53 AM 73.0 °F 64.9 °F 76% 29.81 in 6.0 mi WNW 4.6 mph - N/A   Haze
10:53 AM 77.0 °F 64.9 °F 66% 29.81 in 7.0 mi West 6.9 mph - N/A   Clear
11:53 AM 77.0 °F 64.0 °F 64% 29.80 in 9.0 mi WNW 8.1 mph - N/A   Clear
12:53 PM 78.1 °F 64.0 °F 62% 29.80 in 9.0 mi West 9.2 mph - N/A   Clear
1:53 PM 78.1 °F 64.9 °F 64% 29.78 in 10.0 mi NW 8.1 mph - N/A   Clear
2:53 PM 77.0 °F 64.9 °F 66% 29.77 in 10.0 mi West 8.1 mph - N/A   Clear
3:53 PM 78.1 °F 64.9 °F 64% 29.75 in 10.0 mi WNW 6.9 mph - N/A   Clear
4:53 PM 75.0 °F 64.9 °F 71% 29.75 in 10.0 mi West 12.7 mph - N/A   Clear
5:53 PM 71.1 °F 64.0 °F 78% 29.76 in 10.0 mi WNW 5.8 mph - N/A   Clear
6:53 PM 68.0 °F 63.0 °F 84% 29.78 in 10.0 mi West 4.6 mph - N/A   Clear
7:53 PM 66.0 °F 64.0 °F 93% 29.79 in 10.0 mi West 5.8 mph - N/A   Clear
8:53 PM 64.9 °F 64.0 °F 97% 29.80 in 10.0 mi Calm Calm - N/A   Clear
9:53 PM 64.9 °F 64.0 °F 97% 29.81 in 7.0 mi Calm Calm - N/A   Clear
10:53 PM 64.0 °F 63.0 °F 96% 29.81 in 6.0 mi West 3.5 mph - N/A   Clear
11:03 PM 64.4 °F 62.6 °F 94% 29.82 in 6.0 mi West 3.5 mph - N/A   Scattered Clouds
11:12 PM 64.4 °F 62.6 °F 94% 29.82 in 5.0 mi West 3.5 mph - N/A   Mostly Cloudy
11:53 PM 64.9 °F 64.0 °F 97% 29.81 in 4.0 mi Calm Calm - N/A   Overcast